20040118,000022,1054644,34.067167,-121.401333,NaN,14.942,32.735,40.370,  NaN,0.0, NaN, NaN, NaN, NaN, NaN,367.251,12.10,1016.93,83.40,NaN,32.0,NaN,8.9,NaN,306.9,NaN,4.5,NaN,NaN, NaN,NaN,270.0,NaN,NaN,NaN,2,8.9,000020,   NaN,270.7,     NaN,      NaN,NaN,5.8,NaN,14.946, NaN,NaN,NaN, NaN, NaN

20040118,000052,1054674,34.067167,-121.402833,NaN,14.941,32.735,40.368,  NaN,0.0, NaN, NaN, NaN, NaN, NaN,367.234,12.10,1016.91,82.30,NaN,29.0,NaN,9.6,NaN,319.3,NaN,5.7,NaN,NaN, NaN,NaN,270.0,NaN,NaN,NaN,2,8.9,000050,   NaN,270.9,     NaN,      NaN,NaN,5.7,NaN,14.944, NaN,NaN,NaN, NaN, NaN

20040118,000122,1054704,34.067167,-121.404333,NaN,14.935,32.734,40.361,  NaN,0.0, NaN, NaN, NaN, NaN, NaN,367.190,12.10,1016.76,83.90,NaN,28.0,NaN,8.4,NaN,317.9,NaN,5.6,NaN,NaN, NaN,NaN,271.0,NaN,NaN,NaN,2,8.8,000080,   NaN,270.8,     NaN,      NaN,NaN,5.9,NaN,14.939, NaN,NaN,NaN, NaN, NaN

20040118,000152,1054734,34.067167,-121.405833,NaN,14.929,32.733,40.355,  NaN,0.0, NaN, NaN, NaN, NaN, NaN,367.147,12.20,1016.76,84.70,NaN,33.0,NaN,8.8,NaN,331.1,NaN,5.2,NaN,NaN, NaN,NaN,270.0,NaN,NaN,NaN,2,8.7,000110,   NaN,271.1,     NaN,      NaN,NaN,5.7,NaN,14.933, NaN,NaN,NaN, NaN, NaN

20040118,000222,1054764,34.067167,-121.407167,NaN,14.926,32.732,40.351,  NaN,0.0, NaN, NaN, NaN, NaN, NaN,367.164,12.20,1016.96,85.70,NaN,43.0,NaN,8.1,NaN,354.8,NaN,5.4,NaN,NaN, NaN,NaN,271.0,NaN,NaN,NaN,2,8.9,000140,   NaN,271.2,     NaN,      NaN,NaN,5.7,NaN,14.929, NaN,NaN,NaN, NaN, NaN

20040118,000252,1054794,34.067167,-121.408667,NaN,14.922,32.731,40.346,  NaN,0.0, NaN, NaN, NaN, NaN, NaN,367.134,12.30,1016.59,85.10,NaN,46.0,NaN,9.4,NaN,334.3,NaN,6.5,NaN,NaN, NaN,NaN,272.0,NaN,NaN,NaN,2,9.0,000170,   NaN,272.1,     NaN,      NaN,NaN,5.9,NaN,14.926, NaN,NaN,NaN, NaN, NaN

20040118,000322,1054824,34.067167,-121.410167,NaN,14.918,32.728,40.340,  NaN,0.0, NaN, NaN, NaN, NaN, NaN,367.267,12.20,1016.90,84.40,NaN,358.0,NaN,8.6,NaN,342.0,NaN,5.7,NaN,NaN, NaN,NaN,271.0,NaN,NaN,NaN,2,8.9,000200,   NaN,270.6,     NaN,      NaN,NaN,5.8,NaN,14.922, NaN,NaN,NaN, NaN, NaN

20040118,000352,1054854,34.067167,-121.411667,NaN,14.919,32.728,40.339,  NaN,0.0, NaN, NaN, NaN, NaN, NaN,367.336,12.20,1016.99,84.70,NaN,44.0,NaN,10.1,NaN,339.2,NaN,8.1,NaN,NaN, NaN,NaN,270.0,NaN,NaN,NaN,2,8.4,000230,   NaN,269.9,     NaN,      NaN,NaN,5.5,NaN,14.922, NaN,NaN,NaN, NaN, NaN

20040118,000422,1054884,34.067167,-121.413000,NaN,14.918,32.727,40.338,  NaN,0.0, NaN, NaN, NaN, NaN, NaN,367.407,12.20,1016.52,84.10,NaN,44.0,NaN,9.1,NaN,339.7,NaN,6.1,NaN,NaN, NaN,NaN,269.0,NaN,NaN,NaN,2,8.6,000260,   NaN,271.1,     NaN,      NaN,NaN,5.5,NaN,14.922, NaN,NaN,NaN, NaN, NaN

20040118,000452,1054914,34.067167,-121.414500,NaN,14.920,32.729,40.341,  NaN,0.0, NaN, NaN, NaN, NaN, NaN,367.286,12.20,1016.69,85.60,NaN,44.0,NaN,8.3,NaN,350.5,NaN,6.1,NaN,NaN, NaN,NaN,273.0,NaN,NaN,NaN,2,8.6,000290,   NaN,273.3,     NaN,      NaN,NaN,5.6,NaN,14.923, NaN,NaN,NaN, NaN, NaN

20040118,000522,1054944,34.067333,-121.415833,NaN,14.916,32.733,40.343,  NaN,0.0, NaN, NaN, NaN, NaN, NaN,366.860,12.30,1016.76,86.10,NaN,40.0,NaN,10.5,NaN,332.1,NaN,7.4,NaN,NaN, NaN,NaN,270.0,NaN,NaN,NaN,2,8.9,000320,   NaN,270.6,     NaN,      NaN,NaN,5.8,NaN,14.919, NaN,NaN,NaN, NaN, NaN

20040118,000552,1054974,34.067333,-121.417333,NaN,14.913,32.735,40.342,  NaN,0.0, NaN, NaN, NaN, NaN, NaN,366.711,12.30,1016.58,84.80,NaN,41.0,NaN,10.6,NaN,334.6,NaN,8.3,NaN,NaN, NaN,NaN,270.0,NaN,NaN,NaN,2,8.9,000350,   NaN,270.6,     NaN,      NaN,NaN,5.9,NaN,14.916, NaN,NaN,NaN, NaN, NaN

20040118,000622,1055004,34.067333,-121.418833,NaN,14.909,32.736,40.339,  NaN,0.0, NaN, NaN, NaN, NaN, NaN,366.546,12.30,1016.82,85.60,NaN,41.0,NaN,11.3,NaN,331.8,NaN,8.4,NaN,NaN, NaN,NaN,271.0,NaN,NaN,NaN,2,9.0,000380,   NaN,272.5,     NaN,      NaN,NaN,5.7,NaN,14.912, NaN,NaN,NaN, NaN, NaN

20040118,000652,1055034,34.067333,-121.420333,NaN,14.910,32.735,40.340,  NaN,0.0, NaN, NaN, NaN, NaN, NaN,366.606,12.30,1016.83,86.70,NaN,42.0,NaN,10.9,NaN,336.6,NaN,8.1,NaN,NaN, NaN,NaN,272.0,NaN,NaN,NaN,2,8.9,000410,   NaN,271.1,     NaN,      NaN,NaN,5.7,NaN,14.914, NaN,NaN,NaN, NaN, NaN

20040118,000722,1055064,34.067333,-121.421833,NaN,14.893,32.737,40.325,  NaN,0.0, NaN, NaN, NaN, NaN, NaN,366.151,12.50,1016.80,86.40,NaN,26.0,NaN,9.1,NaN,308.4,NaN,5.3,NaN,NaN, NaN,NaN,269.0,NaN,NaN,NaN,2,8.8,000440,   NaN,269.4,     NaN,      NaN,NaN,5.8,NaN,14.897, NaN,NaN,NaN, NaN, NaN

20040118,000752,1055094,34.067333,-121.423333,NaN,14.885,32.732,40.313,  NaN,0.0, NaN, NaN, NaN, NaN, NaN,366.327,12.30,1016.83,85.30,NaN,23.0,NaN,10.0,NaN,313.4,NaN,4.8,NaN,NaN, NaN,NaN,271.0,NaN,NaN,NaN,2,8.8,000470,   NaN,271.3,     NaN,      NaN,NaN,5.7,NaN,14.889, NaN,NaN,NaN, NaN, NaN

20040118,000822,1055124,34.067333,-121.424833,NaN,14.885,32.742,40.323,  NaN,0.0, NaN, NaN, NaN, NaN, NaN,365.628,12.30,1016.86,85.30,NaN,35.0,NaN,10.5,NaN,329.4,NaN,7.6,NaN,NaN, NaN,NaN,271.0,NaN,NaN,NaN,2,8.8,000500,   NaN,271.0,     NaN,      NaN,NaN,5.7,NaN,14.888, NaN,NaN,NaN, NaN, NaN

20040118,000852,1055154,34.067333,-121.426167,NaN,14.889,32.740,40.326,  NaN,0.0, NaN, NaN, NaN, NaN, NaN,365.797,12.30,1016.82,85.50,NaN,40.0,NaN,9.3,NaN,330.7,NaN,6.5,NaN,NaN, NaN,NaN,270.0,NaN,NaN,NaN,2,8.7,000530,   NaN,270.7,     NaN,      NaN,NaN,5.6,NaN,14.893, NaN,NaN,NaN, NaN, NaN

20040118,000922,1055184,34.067500,-121.427667,NaN,14.884,32.742,40.323,  NaN,0.0, NaN, NaN, NaN, NaN, NaN,365.563,12.30,1016.56,85.80,NaN,24.0,NaN,9.5,NaN,326.4,NaN,5.7,NaN,NaN, NaN,NaN,271.0,NaN,NaN,NaN,2,8.5,000560,   NaN,271.0,     NaN,      NaN,NaN,5.7,NaN,14.888, NaN,NaN,NaN, NaN, NaN

20040118,000952,1055214,34.067500,-121.429167,NaN,14.879,32.743,40.319,  NaN,0.0, NaN, NaN, NaN, NaN, NaN,365.380,12.30,1016.60,84.60,NaN,358.0,NaN,10.0,NaN,315.4,NaN,6.6,NaN,NaN, NaN,NaN,270.0,NaN,NaN,NaN,2,8.1,000590,   NaN,269.6,     NaN,      NaN,NaN,5.6,NaN,14.882, NaN,NaN,NaN, NaN, NaN

20040118,001022,1055244,34.067500,-121.430500,NaN,14.868,32.744,40.310,  NaN,0.0, NaN, NaN, NaN, NaN, NaN,365.126,12.20,1016.79,84.60,NaN,24.0,NaN,9.5,NaN,316.4,NaN,6.5,NaN,NaN, NaN,NaN,274.0,NaN,NaN,NaN,2,8.4,000620,   NaN,273.2,     NaN,      NaN,NaN,5.4,NaN,14.872, NaN,NaN,NaN, NaN, NaN

20040118,001052,1055274,34.067500,-121.431833,NaN,14.862,32.740,40.300,  NaN,0.0, NaN, NaN, NaN, NaN, NaN,365.295,12.20,1016.86,85.50,NaN,27.0,NaN,8.4,NaN,325.1,NaN,5.7,NaN,NaN, NaN,NaN,270.0,NaN,NaN,NaN,2,8.5,000650,   NaN,270.1,     NaN,      NaN,NaN,5.8,NaN,14.866, NaN,NaN,NaN, NaN, NaN

20040118,001122,1055304,34.067500,-121.433333,NaN,14.869,32.742,40.309,  NaN,0.0, NaN, NaN, NaN, NaN, NaN,365.285,12.30,1016.69,84.70,NaN,32.0,NaN,11.5,NaN,321.0,NaN,7.5,NaN,NaN, NaN,NaN,272.0,NaN,NaN,NaN,2,8.4,000680,   NaN,271.1,     NaN,      NaN,NaN,5.7,NaN,14.872, NaN,NaN,NaN, NaN, NaN

20040118,001152,1055334,34.067500,-121.434833,NaN,14.859,32.743,40.301,  NaN,0.0, NaN, NaN, NaN, NaN, NaN,364.983,12.20,1016.81,84.70,NaN,26.0,NaN,11.3,NaN,314.2,NaN,7.4,NaN,NaN, NaN,NaN,273.0,NaN,NaN,NaN,2,8.8,000710,   NaN,271.1,     NaN,      NaN,NaN,5.9,NaN,14.862, NaN,NaN,NaN, NaN, NaN

20040118,001222,1055364,34.067500,-121.436167,NaN,14.840,32.740,40.281,  NaN,0.0, NaN, NaN, NaN, NaN, NaN,364.813,12.20,1016.84,84.60,NaN,28.0,NaN,10.2,NaN,311.3,NaN,5.8,NaN,NaN, NaN,NaN,270.0,NaN,NaN,NaN,2,8.9,000740,   NaN,270.5,     NaN,      NaN,NaN,5.6,NaN,14.844, NaN,NaN,NaN, NaN, NaN

20040118,001252,1055394,34.067500,-121.437667,NaN,14.853,32.740,40.293,  NaN,0.0, NaN, NaN, NaN, NaN, NaN,365.058,12.10,1016.79,84.30,NaN,38.0,NaN,10.5,NaN,328.3,NaN,7.3,NaN,NaN, NaN,NaN,265.0,NaN,NaN,NaN,2,8.8,000770,   NaN,261.4,     NaN,      NaN,NaN,5.9,NaN,14.857, NaN,NaN,NaN, NaN, NaN

20040118,001322,1055424,34.067333,-121.439167,NaN,14.878,32.742,40.317,  NaN,0.0, NaN, NaN, NaN, NaN, NaN,365.454,12.10,1016.82,84.10,NaN,55.0,NaN,7.0,NaN,341.4,NaN,5.6,NaN,NaN, NaN,NaN,250.0,NaN,NaN,NaN,2,8.9,000800,   NaN,248.6,     NaN,      NaN,NaN,5.9,NaN,14.881, NaN,NaN,NaN, NaN, NaN

20040118,001352,1055454,34.066833,-121.440500,NaN,14.887,32.744,40.327,  NaN,0.0, NaN, NaN, NaN, NaN, NaN,365.507,12.20,1016.78,85.10,NaN,48.0,NaN,7.7,NaN,321.4,NaN,5.8,NaN,NaN, NaN,NaN,244.0,NaN,NaN,NaN,2,9.0,000830,   NaN,244.8,     NaN,      NaN,NaN,5.9,NaN,14.890, NaN,NaN,NaN, NaN, NaN

20040118,001422,1055484,34.066167,-121.441833,NaN,14.892,32.744,40.332,  NaN,0.0, NaN, NaN, NaN, NaN, NaN,365.577,12.20,1016.78,85.10,NaN,52.0,NaN,6.9,NaN,328.9,NaN,5.7,NaN,NaN, NaN,NaN,241.0,NaN,NaN,NaN,2,8.9,000860,   NaN,241.1,     NaN,      NaN,NaN,5.8,NaN,14.895, NaN,NaN,NaN, NaN, NaN

20040118,001452,1055514,34.065667,-121.443167,NaN,14.887,32.744,40.328,  NaN,0.0, NaN, NaN, NaN, NaN, NaN,365.505,12.30,1016.74,85.70,NaN,58.0,NaN,5.1,NaN,348.0,NaN,4.7,NaN,NaN, NaN,NaN,239.0,NaN,NaN,NaN,2,8.8,000890,   NaN,239.1,     NaN,      NaN,NaN,5.9,NaN,14.891, NaN,NaN,NaN, NaN, NaN

20040118,001522,1055544,34.065000,-121.444333,NaN,14.877,32.743,40.318,  NaN,0.0, NaN, NaN, NaN, NaN, NaN,365.321,12.30,1016.85,86.40,NaN,45.0,NaN,7.6,NaN,320.6,NaN,5.6,NaN,NaN, NaN,NaN,236.0,NaN,NaN,NaN,2,9.2,000920,   NaN,236.9,     NaN,      NaN,NaN,6.2,NaN,14.880, NaN,NaN,NaN, NaN, NaN

20040118,001552,1055574,34.064167,-121.445667,NaN,14.892,32.744,40.333,  NaN,0.0, NaN, NaN, NaN, NaN, NaN,365.620,12.30,1016.76,86.60,NaN,55.0,NaN,9.0,NaN,320.6,NaN,6.9,NaN,NaN, NaN,NaN,233.0,NaN,NaN,NaN,2,9.0,000950,   NaN,235.9,     NaN,      NaN,NaN,6.0,NaN,14.896, NaN,NaN,NaN, NaN, NaN

20040118,001622,1055604,34.063500,-121.446833,NaN,14.906,32.745,40.346,  NaN,0.0, NaN, NaN, NaN, NaN, NaN,365.838,12.20,1016.78,85.20,NaN,57.0,NaN,6.2,NaN,338.8,NaN,6.2,NaN,NaN, NaN,NaN,235.0,NaN,NaN,NaN,2,8.9,000980,   NaN,237.0,     NaN,      NaN,NaN,5.9,NaN,14.909, NaN,NaN,NaN, NaN, NaN

20040118,001652,1055634,34.062833,-121.448167,NaN,14.908,32.745,40.348,  NaN,0.0, NaN, NaN, NaN, NaN, NaN,365.894,12.20,1016.67,85.50,NaN,59.0,NaN,7.6,NaN,325.8,NaN,7.0,NaN,NaN, NaN,NaN,232.0,NaN,NaN,NaN,2,9.2,001010,   NaN,234.6,     NaN,      NaN,NaN,5.9,NaN,14.912, NaN,NaN,NaN, NaN, NaN

20040118,001722,1055664,34.062000,-121.449333,NaN,14.911,32.745,40.351,  NaN,0.0, NaN, NaN, NaN, NaN, NaN,365.906,12.30,1016.74,85.70,NaN,59.0,NaN,6.5,NaN,337.9,NaN,6.2,NaN,NaN, NaN,NaN,234.0,NaN,NaN,NaN,2,9.0,001040,   NaN,234.9,     NaN,      NaN,NaN,6.1,NaN,14.915, NaN,NaN,NaN, NaN, NaN

20040118,001752,1055694,34.061333,-121.450500,NaN,14.909,32.747,40.352,  NaN,0.0, NaN, NaN, NaN, NaN, NaN,365.752,12.30,1016.83,86.40,NaN,65.0,NaN,6.5,NaN,336.8,NaN,6.2,NaN,NaN, NaN,NaN,231.0,NaN,NaN,NaN,2,9.1,001070,   NaN,234.8,     NaN,      NaN,NaN,6.0,NaN,14.913, NaN,NaN,NaN, NaN, NaN

20040118,001822,1055724,34.060500,-121.451833,NaN,14.903,32.748,40.347,  NaN,0.0, NaN, NaN, NaN, NaN, NaN,365.499,12.20,1016.86,84.20,NaN,60.0,NaN,7.9,NaN,324.2,NaN,5.6,NaN,NaN, NaN,NaN,233.0,NaN,NaN,NaN,2,9.1,001100,   NaN,233.5,     NaN,      NaN,NaN,5.9,NaN,14.906, NaN,NaN,NaN, NaN, NaN

20040118,001852,1055754,34.059833,-121.453000,NaN,14.882,32.747,40.326,  NaN,0.0, NaN, NaN, NaN, NaN, NaN,365.135,12.10,1016.83,84.30,NaN,62.0,NaN,5.8,NaN,339.6,NaN,6.5,NaN,NaN, NaN,NaN,235.0,NaN,NaN,NaN,2,9.0,001130,   NaN,234.5,     NaN,      NaN,NaN,5.9,NaN,14.885, NaN,NaN,NaN, NaN, NaN

20040118,001922,1055784,34.059167,-121.454167,NaN,14.887,32.745,40.329,  NaN,0.0, NaN, NaN, NaN, NaN, NaN,365.456,12.20,1016.79,85.20,NaN,62.0,NaN,6.1,NaN,338.4,NaN,6.0,NaN,NaN, NaN,NaN,233.0,NaN,NaN,NaN,2,8.9,001160,   NaN,233.6,     NaN,      NaN,NaN,6.0,NaN,14.891, NaN,NaN,NaN, NaN, NaN

20040118,001952,1055814,34.058333,-121.455500,NaN,14.905,32.747,40.347,  NaN,0.0, NaN, NaN, NaN, NaN, NaN,365.655,12.10,1016.80,85.10,NaN,66.0,NaN,7.0,NaN,348.8,NaN,6.4,NaN,NaN, NaN,NaN,234.0,NaN,NaN,NaN,2,8.9,001190,   NaN,234.6,     NaN,      NaN,NaN,5.9,NaN,14.908, NaN,NaN,NaN, NaN, NaN

20040118,002022,1055844,34.057667,-121.456667,NaN,14.912,32.747,40.354,  NaN,0.0, NaN, NaN, NaN, NaN, NaN,365.787,12.20,1016.77,85.10,NaN,56.0,NaN,9.1,NaN,321.6,NaN,7.1,NaN,NaN, NaN,NaN,234.0,NaN,NaN,NaN,2,9.1,001220,   NaN,235.6,     NaN,      NaN,NaN,6.0,NaN,14.915, NaN,NaN,NaN, NaN, NaN

20040118,002052,1055874,34.056833,-121.457833,NaN,14.915,32.745,40.355,  NaN,0.0, NaN, NaN, NaN, NaN, NaN,365.980,12.20,1016.66,85.60,NaN,68.0,NaN,6.2,NaN,349.8,NaN,6.0,NaN,NaN, NaN,NaN,233.0,NaN,NaN,NaN,2,9.0,001250,   NaN,235.2,     NaN,      NaN,NaN,5.9,NaN,14.919, NaN,NaN,NaN, NaN, NaN

20040118,002122,1055904,34.056167,-121.459167,NaN,14.913,32.745,40.353,  NaN,0.0, NaN, NaN, NaN, NaN, NaN,365.944,12.30,1016.82,86.70,NaN,58.0,NaN,5.0,NaN,350.8,NaN,4.7,NaN,NaN, NaN,NaN,233.0,NaN,NaN,NaN,2,9.0,001280,   NaN,233.6,     NaN,      NaN,NaN,5.8,NaN,14.916, NaN,NaN,NaN, NaN, NaN

20040118,002152,1055934,34.055333,-121.460333,NaN,14.914,32.743,40.352,  NaN,0.0, NaN, NaN, NaN, NaN, NaN,366.101,12.20,1016.91,85.20,NaN,69.0,NaN,5.3,NaN,356.1,NaN,5.0,NaN,NaN, NaN,NaN,231.0,NaN,NaN,NaN,2,9.2,001310,   NaN,232.1,     NaN,      NaN,NaN,6.1,NaN,14.918, NaN,NaN,NaN, NaN, NaN

20040118,002222,1055964,34.054667,-121.461500,NaN,14.918,32.744,40.357,  NaN,0.0, NaN, NaN, NaN, NaN, NaN,366.107,12.30,1016.64,87.20,NaN,52.0,NaN,3.6,NaN,3.8,NaN,3.9,NaN,NaN, NaN,NaN,229.0,NaN,NaN,NaN,2,9.3,001340,   NaN,233.3,     NaN,      NaN,NaN,6.0,NaN,14.921, NaN,NaN,NaN, NaN, NaN

20040118,002252,1055994,34.053833,-121.462667,NaN,14.916,32.743,40.354,  NaN,0.0, NaN, NaN, NaN, NaN, NaN,366.138,12.30,1016.74,85.20,NaN,62.0,NaN,5.7,NaN,345.8,NaN,5.5,NaN,NaN, NaN,NaN,232.0,NaN,NaN,NaN,2,9.1,001370,   NaN,234.1,     NaN,      NaN,NaN,6.1,NaN,14.919, NaN,NaN,NaN, NaN, NaN

20040118,002322,1056024,34.053167,-121.464000,NaN,14.916,32.740,40.351,  NaN,0.0, NaN, NaN, NaN, NaN, NaN,366.347,12.20,1016.67,86.90,NaN,62.0,NaN,5.6,NaN,348.3,NaN,5.9,NaN,NaN, NaN,NaN,233.0,NaN,NaN,NaN,2,9.2,001400,   NaN,234.7,     NaN,      NaN,NaN,6.1,NaN,14.920, NaN,NaN,NaN, NaN, NaN

20040118,002352,1056054,34.052333,-121.465167,NaN,14.917,32.741,40.353,  NaN,0.0, NaN, NaN, NaN, NaN, NaN,366.297,12.20,1016.82,86.20,NaN,69.0,NaN,6.6,NaN,347.1,NaN,6.4,NaN,NaN, NaN,NaN,232.0,NaN,NaN,NaN,2,9.0,001430,   NaN,233.8,     NaN,      NaN,NaN,5.7,NaN,14.921, NaN,NaN,NaN, NaN, NaN

20040118,002422,1056084,34.051500,-121.466333,NaN,14.915,32.743,40.352,  NaN,0.0, NaN, NaN, NaN, NaN, NaN,366.167,12.10,1016.70,84.70,NaN,62.0,NaN,5.7,NaN,340.1,NaN,5.5,NaN,NaN, NaN,NaN,231.0,NaN,NaN,NaN,2,9.3,001460,   NaN,234.2,     NaN,      NaN,NaN,5.9,NaN,14.919, NaN,NaN,NaN, NaN, NaN

20040118,002452,1056114,34.050833,-121.467667,NaN,14.915,32.743,40.353,  NaN,0.0, NaN, NaN, NaN, NaN, NaN,366.120,12.30,1016.87,86.00,NaN,59.0,NaN,7.8,NaN,335.8,NaN,6.0,NaN,NaN, NaN,NaN,233.0,NaN,NaN,NaN,2,9.2,001490,   NaN,234.2,     NaN,      NaN,NaN,5.9,NaN,14.918, NaN,NaN,NaN, NaN, NaN

20040118,002522,1056144,34.050000,-121.468833,NaN,14.916,32.744,40.355,  NaN,0.0, NaN, NaN, NaN, NaN, NaN,366.092,12.30,1016.99,86.10,NaN,40.0,NaN,8.2,NaN,310.0,NaN,5.4,NaN,NaN, NaN,NaN,234.0,NaN,NaN,NaN,2,9.2,001520,   NaN,235.0,     NaN,      NaN,NaN,6.1,NaN,14.920, NaN,NaN,NaN, NaN, NaN

20040118,002552,1056174,34.049333,-121.470000,NaN,14.917,32.746,40.359,  NaN,0.0, NaN, NaN, NaN, NaN, NaN,365.945,12.30,1016.58,85.80,NaN,46.0,NaN,7.7,NaN,322.8,NaN,5.8,NaN,NaN, NaN,NaN,234.0,NaN,NaN,NaN,2,9.1,001550,   NaN,234.1,     NaN,      NaN,NaN,6.1,NaN,14.921, NaN,NaN,NaN, NaN, NaN

20040118,002622,1056204,34.048500,-121.471333,NaN,14.921,32.748,40.364,  NaN,0.0, NaN, NaN, NaN, NaN, NaN,365.884,12.30,1016.91,86.10,NaN,53.0,NaN,8.0,NaN,335.6,NaN,6.6,NaN,NaN, NaN,NaN,233.0,NaN,NaN,NaN,2,9.3,001580,   NaN,234.2,     NaN,      NaN,NaN,5.8,NaN,14.924, NaN,NaN,NaN, NaN, NaN

20040118,002652,1056234,34.047667,-121.472500,NaN,14.919,32.750,40.365,  NaN,0.0, NaN, NaN, NaN, NaN, NaN,365.683,12.20,1016.75,85.20,NaN,53.0,NaN,8.1,NaN,326.8,NaN,6.8,NaN,NaN, NaN,NaN,233.0,NaN,NaN,NaN,2,9.2,001610,   NaN,234.2,     NaN,      NaN,NaN,5.9,NaN,14.923, NaN,NaN,NaN, NaN, NaN

20040118,002722,1056264,34.047000,-121.473667,NaN,14.909,32.750,40.354,  NaN,0.0, NaN, NaN, NaN, NaN, NaN,365.520,12.20,1016.72,85.20,NaN,60.0,NaN,6.7,NaN,336.7,NaN,6.5,NaN,NaN, NaN,NaN,233.0,NaN,NaN,NaN,2,9.1,001640,   NaN,234.4,     NaN,      NaN,NaN,6.1,NaN,14.912, NaN,NaN,NaN, NaN, NaN

20040118,002752,1056294,34.046167,-121.475000,NaN,14.904,32.750,40.350,  NaN,0.0, NaN, NaN, NaN, NaN, NaN,365.427,12.30,1016.95,85.60,NaN,63.0,NaN,7.6,NaN,337.4,NaN,6.9,NaN,NaN, NaN,NaN,233.0,NaN,NaN,NaN,2,9.2,001670,   NaN,233.2,     NaN,      NaN,NaN,5.9,NaN,14.907, NaN,NaN,NaN, NaN, NaN

20040118,002822,1056324,34.045333,-121.476167,NaN,14.901,32.747,40.345,  NaN,0.0, NaN, NaN, NaN, NaN, NaN,365.555,12.20,1016.83,84.60,NaN,59.0,NaN,8.7,NaN,318.2,NaN,6.6,NaN,NaN, NaN,NaN,232.0,NaN,NaN,NaN,2,9.4,001700,   NaN,234.9,     NaN,      NaN,NaN,6.0,NaN,14.905, NaN,NaN,NaN, NaN, NaN

20040118,002852,1056354,34.044667,-121.477333,NaN,14.898,32.746,40.340,  NaN,0.0, NaN, NaN, NaN, NaN, NaN,365.590,12.20,1016.59,85.10,NaN,52.0,NaN,6.6,NaN,332.4,NaN,6.0,NaN,NaN, NaN,NaN,233.0,NaN,NaN,NaN,2,9.0,001730,   NaN,236.1,     NaN,      NaN,NaN,5.7,NaN,14.902, NaN,NaN,NaN, NaN, NaN

20040118,002922,1056384,34.043833,-121.478667,NaN,14.898,32.745,40.339,  NaN,0.0, NaN, NaN, NaN, NaN, NaN,365.642,12.20,1016.81,85.60,NaN,38.0,NaN,7.5,NaN,329.4,NaN,6.6,NaN,NaN, NaN,NaN,235.0,NaN,NaN,NaN,2,9.2,001760,   NaN,235.3,     NaN,      NaN,NaN,5.8,NaN,14.901, NaN,NaN,NaN, NaN, NaN

20040118,002952,1056414,34.043167,-121.479833,NaN,14.898,32.744,40.339,  NaN,0.0, NaN, NaN, NaN, NaN, NaN,365.709,12.10,1016.73,84.40,NaN,60.0,NaN,7.6,NaN,328.6,NaN,6.0,NaN,NaN, NaN,NaN,231.0,NaN,NaN,NaN,2,9.3,001790,   NaN,232.7,     NaN,      NaN,NaN,6.2,NaN,14.902, NaN,NaN,NaN, NaN, NaN

20040118,003022,1056444,34.042333,-121.481000,NaN,14.901,32.744,40.341,  NaN,0.0, NaN, NaN, NaN, NaN, NaN,365.787,12.10,1016.75,84.40,NaN,51.0,NaN,8.2,NaN,315.5,NaN,6.1,NaN,NaN, NaN,NaN,232.0,NaN,NaN,NaN,2,9.2,001820,   NaN,235.7,     NaN,      NaN,NaN,6.0,NaN,14.905, NaN,NaN,NaN, NaN, NaN

20040118,003052,1056474,34.041500,-121.482333,NaN,14.905,32.744,40.345,  NaN,0.0, NaN, NaN, NaN, NaN, NaN,365.820,12.10,1016.84,83.80,NaN,59.0,NaN,8.6,NaN,323.3,NaN,7.3,NaN,NaN, NaN,NaN,233.0,NaN,NaN,NaN,2,9.2,001850,   NaN,234.7,     NaN,      NaN,NaN,6.0,NaN,14.908, NaN,NaN,NaN, NaN, NaN

20040118,003122,1056504,34.040833,-121.483500,NaN,14.908,32.745,40.348,  NaN,0.0, NaN, NaN, NaN, NaN, NaN,365.873,12.20,1016.95,84.80,NaN,52.0,NaN,9.3,NaN,323.5,NaN,8.0,NaN,NaN, NaN,NaN,235.0,NaN,NaN,NaN,2,9.2,001880,   NaN,236.1,     NaN,      NaN,NaN,6.1,NaN,14.911, NaN,NaN,NaN, NaN, NaN

20040118,003152,1056534,34.040167,-121.484667,NaN,14.913,32.746,40.355,  NaN,0.0, NaN, NaN, NaN, NaN, NaN,365.870,12.20,1016.87,84.60,NaN,62.0,NaN,8.3,NaN,327.4,NaN,6.9,NaN,NaN, NaN,NaN,231.0,NaN,NaN,NaN,2,9.1,001910,   NaN,234.9,     NaN,      NaN,NaN,6.0,NaN,14.917, NaN,NaN,NaN, NaN, NaN

20040118,003222,1056564,34.039333,-121.485833,NaN,14.913,32.746,40.355,  NaN,0.0, NaN, NaN, NaN, NaN, NaN,365.848,12.10,1016.73,84.10,NaN,56.0,NaN,7.2,NaN,330.1,NaN,6.5,NaN,NaN, NaN,NaN,231.0,NaN,NaN,NaN,2,9.2,001940,   NaN,234.1,     NaN,      NaN,NaN,6.0,NaN,14.917, NaN,NaN,NaN, NaN, NaN

20040118,003252,1056594,34.038500,-121.487000,NaN,14.917,32.747,40.359,  NaN,0.0, NaN, NaN, NaN, NaN, NaN,365.902,12.10,1016.86,83.00,NaN,47.0,NaN,7.5,NaN,323.6,NaN,5.2,NaN,NaN, NaN,NaN,231.0,NaN,NaN,NaN,2,9.3,001970,   NaN,233.2,     NaN,      NaN,NaN,6.2,NaN,14.921, NaN,NaN,NaN, NaN, NaN

20040118,003322,1056624,34.037833,-121.488333,NaN,14.919,32.748,40.362,  NaN,0.0, NaN, NaN, NaN, NaN, NaN,365.847,12.10,1016.84,83.90,NaN,44.0,NaN,7.5,NaN,323.4,NaN,6.2,NaN,NaN, NaN,NaN,233.0,NaN,NaN,NaN,2,9.2,002000,   NaN,234.3,     NaN,      NaN,NaN,6.1,NaN,14.922, NaN,NaN,NaN, NaN, NaN

20040118,003352,1056654,34.037000,-121.489500,NaN,14.922,32.747,40.364,  NaN,0.0, NaN, NaN, NaN, NaN, NaN,365.993,12.20,1016.90,84.70,NaN,62.0,NaN,7.4,NaN,336.1,NaN,5.6,NaN,NaN, NaN,NaN,232.0,NaN,NaN,NaN,2,9.2,002030,   NaN,234.4,     NaN,      NaN,NaN,6.1,NaN,14.926, NaN,NaN,NaN, NaN, NaN

20040118,003422,1056684,34.036167,-121.490667,NaN,14.928,32.748,40.371,  NaN,0.0, NaN, NaN, NaN, NaN, NaN,366.011,12.10,1016.85,84.70,NaN,59.0,NaN,5.4,NaN,345.0,NaN,5.2,NaN,NaN, NaN,NaN,231.0,NaN,NaN,NaN,2,9.2,002060,   NaN,233.1,     NaN,      NaN,NaN,6.0,NaN,14.932, NaN,NaN,NaN, NaN, NaN

20040118,003452,1056714,34.035333,-121.492000,NaN,14.930,32.750,40.374,  NaN,0.0, NaN, NaN, NaN, NaN, NaN,365.911,12.10,1016.96,84.90,NaN,62.0,NaN,6.7,NaN,344.6,NaN,6.5,NaN,NaN, NaN,NaN,233.0,NaN,NaN,NaN,2,9.3,002090,   NaN,234.9,     NaN,      NaN,NaN,5.9,NaN,14.933, NaN,NaN,NaN, NaN, NaN

20040118,003522,1056744,34.034667,-121.493167,NaN,14.931,32.751,40.377,  NaN,0.0, NaN, NaN, NaN, NaN, NaN,365.904,12.10,1016.79,84.60,NaN,60.0,NaN,5.5,NaN,349.0,NaN,5.1,NaN,NaN, NaN,NaN,232.0,NaN,NaN,NaN,2,9.2,002120,   NaN,235.7,     NaN,      NaN,NaN,5.8,NaN,14.935, NaN,NaN,NaN, NaN, NaN

20040118,003552,1056774,34.033833,-121.494500,NaN,14.927,32.751,40.373,  NaN,0.0, NaN, NaN, NaN, NaN, NaN,365.806,12.10,1016.83,84.10,NaN,71.0,NaN,6.4,NaN,347.4,NaN,7.0,NaN,NaN, NaN,NaN,234.0,NaN,NaN,NaN,2,9.2,002150,   NaN,235.7,     NaN,      NaN,NaN,6.1,NaN,14.931, NaN,NaN,NaN, NaN, NaN

20040118,003622,1056804,34.033167,-121.495667,NaN,14.926,32.752,40.373,  NaN,0.0, NaN, NaN, NaN, NaN, NaN,365.741,12.10,1016.84,84.80,NaN,68.0,NaN,6.0,NaN,355.3,NaN,5.6,NaN,NaN, NaN,NaN,232.0,NaN,NaN,NaN,2,9.4,002180,   NaN,234.5,     NaN,      NaN,NaN,6.0,NaN,14.930, NaN,NaN,NaN, NaN, NaN

20040118,003652,1056834,34.032333,-121.497000,NaN,14.928,32.752,40.374,  NaN,0.0, NaN, NaN, NaN, NaN, NaN,365.757,12.10,1016.95,86.00,NaN,66.0,NaN,5.3,NaN,353.5,NaN,5.4,NaN,NaN, NaN,NaN,233.0,NaN,NaN,NaN,2,9.4,002210,   NaN,234.1,     NaN,      NaN,NaN,6.2,NaN,14.931, NaN,NaN,NaN, NaN, NaN

20040118,003722,1056864,34.031500,-121.498167,NaN,14.929,32.753,40.376,  NaN,0.0, NaN, NaN, NaN, NaN, NaN,365.707,12.20,1017.02,85.60,NaN,73.0,NaN,6.3,NaN,353.9,NaN,6.1,NaN,NaN, NaN,NaN,231.0,NaN,NaN,NaN,2,9.4,002240,   NaN,234.3,     NaN,      NaN,NaN,6.1,NaN,14.932, NaN,NaN,NaN, NaN, NaN

20040118,003752,1056894,34.030833,-121.499333,NaN,14.931,32.752,40.378,  NaN,0.0, NaN, NaN, NaN, NaN, NaN,365.809,12.30,1016.82,86.10,NaN,68.0,NaN,5.1,NaN,359.8,NaN,5.0,NaN,NaN, NaN,NaN,234.0,NaN,NaN,NaN,2,9.1,002270,   NaN,234.5,     NaN,      NaN,NaN,6.1,NaN,14.935, NaN,NaN,NaN, NaN, NaN

20040118,003822,1056924,34.030000,-121.500667,NaN,14.934,32.752,40.381,  NaN,0.0, NaN, NaN, NaN, NaN, NaN,365.846,12.20,1016.92,84.90,NaN,70.0,NaN,5.5,NaN,348.6,NaN,5.7,NaN,NaN, NaN,NaN,234.0,NaN,NaN,NaN,2,9.3,002300,   NaN,235.0,     NaN,      NaN,NaN,6.1,NaN,14.938, NaN,NaN,NaN, NaN, NaN

20040118,003852,1056954,34.029333,-121.502000,NaN,14.935,32.753,40.382,  NaN,0.0, NaN, NaN, NaN, NaN, NaN,365.795,12.30,1016.64,86.50,NaN,75.0,NaN,6.2,NaN,340.9,NaN,7.4,NaN,NaN, NaN,NaN,232.0,NaN,NaN,NaN,2,9.5,002330,   NaN,233.8,     NaN,      NaN,NaN,6.2,NaN,14.938, NaN,NaN,NaN, NaN, NaN

20040118,003922,1056984,34.028500,-121.503167,NaN,14.937,32.754,40.385,  NaN,0.0, NaN, NaN, NaN, NaN, NaN,365.807,12.20,1016.95,85.10,NaN,70.0,NaN,7.9,NaN,342.7,NaN,7.7,NaN,NaN, NaN,NaN,232.0,NaN,NaN,NaN,2,9.2,002359,   NaN,233.6,     NaN,      NaN,NaN,6.0,NaN,14.941, NaN,NaN,NaN, NaN, NaN

20040118,003952,1057014,34.027667,-121.504333,NaN,14.937,32.753,40.384,  NaN,0.0, NaN, NaN, NaN, NaN, NaN,365.878,12.10,1016.78,83.90,NaN,71.0,NaN,8.3,NaN,343.9,NaN,7.8,NaN,NaN, NaN,NaN,235.0,NaN,NaN,NaN,2,9.3,002389,   NaN,236.2,     NaN,      NaN,NaN,5.9,NaN,14.941, NaN,NaN,NaN, NaN, NaN

20040118,004022,1057044,34.027000,-121.505667,NaN,14.937,32.754,40.386,  NaN,0.0, NaN, NaN, NaN, NaN, NaN,365.785,12.00,1016.98,84.10,NaN,66.0,NaN,8.1,NaN,336.2,NaN,8.2,NaN,NaN, NaN,NaN,237.0,NaN,NaN,NaN,2,9.2,002419,   NaN,235.7,     NaN,      NaN,NaN,5.8,NaN,14.941, NaN,NaN,NaN, NaN, NaN
